Regional Weather Roundup
Issued by NWS Charleston, SC

Current Version | Previous Version | Graphics & Text | Print | Product List | Glossary On
Versions: 1 2 3 4 5 6 7 8 9 10 11 12 13 14 15 16 17 18 19 20 21 22 23 24 25 26 27 28 29 30 31 32 33 34 35 36 37 38 39 40 41 42 43 44 45 46 47 48 49 50
928
ASUS42 KCHS 231327
RWRCHS

REGIONAL WEATHER ROUNDUP
NATIONAL WEATHER SERVICE CHARLESTON SC
900 AM EDT TUE MAY 23 2017

NOTE: "FAIR" INDICATES FEW OR NO CLOUDS BELOW 12,000 FEET WITH NO
SIGNIFICANT WEATHER AND/OR OBSTRUCTIONS TO VISIBILITY.

NOT ALL STATIONS ARE QUALITY CONTROLLED. USE DATA WITH CAUTION...
ESPECIALLY DEWPOINT OBSERVATIONS.

SCZ027-030-031-034>040-042>050-231400-
...SOUTHEAST SOUTH CAROLINA...

CITY           SKY/WX    TMP DP  RH WIND       PRES   REMARKS
N CHARLESTON   LGT RAIN  73  71  93 W7        29.87S
WATERFRONT PRK   N/A     75  73  93 SW5       29.86R
JOHNS ISLAND   LGT RAIN  75  73  94 SW7       29.88S
PINOPOLIS        N/A     72  72 100 W7        29.78S
MONCKS CORNER  LGT RAIN  70  68  94 SW5       29.87S
SUMMERVILLE    LGT RAIN  70  70 100 CALM      29.89R
BEAUFORT MCAS  RAIN      73  73 100 SW12      29.88R FOG
BEAUFORT ARPT  LGT RAIN  72  72 100 SW6       29.87F
HILTON HEAD IS LGT RAIN  75  73  94 S9        29.89R
WALTERBORO     LGT RAIN  70  70 100 S5        29.87F
ALLENDALE      PTSUNNY   72  72 100 CALM      29.84F

...SOUTHERN MIDLANDS AND PEE DEE...

CITY           SKY/WX    TMP DP  RH WIND       PRES   REMARKS
GEORGETOWN     CLOUDY    72  72 100 W9        29.87S
KINGSTREE      CLOUDY    70  68  94 S3        29.86S
ORANGEBURG     CLOUDY    71  70  96 SW6       29.86S FOG
BARNWELL       DRIZZLE   73  72  94 CALM      29.85F
AIKEN          CLOUDY    70  68  94 S6        29.88S
MANNING        CLOUDY    72  72 100 SW15      29.86S
COLUMBIA       LGT RAIN  72  69  90 CALM      29.83F FOG
SUMTER         CLOUDY    72  70  94 S7        29.83S
FLORENCE       CLOUDY    71  70  96 S6        29.85S
MYRTLE BEACH   NOT AVBL
N MYRTLE BEACH CLOUDY    75  72  90 SW8       29.84F

$$

GAZ063-065-086>088-099>101-113>116-118-119-134>141-150-231400-
...SOUTHEAST GEORGIA...

CITY           SKY/WX    TMP DP  RH WIND       PRES   REMARKS
SAVANNAH ARPT  CLOUDY    74  70  87 SW7       29.88S
HUNTER AAF     CLOUDY    75  75 100 SW6       29.85F
FORT STEWART   CLOUDY    74  71  92 SW5       29.86S
STATESBORO     CLOUDY    73  73 100 S7        29.87S
SYLVANIA       CLOUDY    72  72 100 SW3       29.86F
CLAXTON        RAIN     N/A N/A N/A CALM      29.87F

...CSRA...CENTRAL AND FAR SOUTHEAST GEORGIA...

CITY           SKY/WX    TMP DP  RH WIND       PRES   REMARKS
THOMSON        RAIN      70  69  97 W6        29.91R FOG
AUGUSTA-BUSH   LGT RAIN  73  71  93 S5        29.84S FOG
AUGUSTA-DANIEL LGT RAIN  72  68  87 SW6       29.85S
SWAINSBORO     RAIN      70  70 100 SW3       29.88R
VIDALIA        LGT RAIN  73  72  94 SW6       29.87R
EASTMAN        CLOUDY    73  73 100 CALM      29.89S
HAZLEHURST     LGT RAIN  74  74 100 SW7       29.87R
ALMA           CLOUDY    76  72  87 SW6       29.88R
WAYCROSS       CLOUDY    78  78 100 SW6       29.88F
JESUP          PTSUNNY   77  70  78 SW5       29.89S
BAXLEY         LGT RAIN  75  75 100 CALM      29.88R
BRUNSWICK      CLOUDY    77  73  88 SW12      29.90S
SAINT SIMONS   CLOUDY    77  71  82 SW13G20   29.89S

$$

SCZ027-028-034-036>038-045-046-048>050-GAZ119-141-231400-
...LAKE AND SUPPLEMENTAL COASTAL OBSERVATIONS...

STATION/POSITION TIME  TEMP    WIND        PRES    WAVE   SWELL
                       AIR SEA DIR/SP/G            HT/PER HT/PER/DIR
                 (UTC) (F)     (DEG/KT/KT) (MB)    (FT/S) (FT/S/D)
WINYAH BAY       1230   74     260/  5     1011.0S
LAKE MURRAY      1220   71        CALM     1010.2
ACE BASIN NERRS  1245   73     220/  2     1012.0S
FORT PULASKI     1300   76 80  250/  5/  7 1012.0
SAPELO ISLAND    1245   76     220/ 12     1012.0S

$$

ANZ835-935-AMZ111-154-330-350-352-354-370-450-454-472-231400-
...C-MAN AND BUOY OBSERVATIONS...

STATION/POSITION TIME  TEMP    WIND        PRES    WAVE   SWELL
                       AIR SEA DIR/SP/G            HT/PER HT/PER/DIR
                 (UTC) (F)     (DEG/KT/KT) (MB)    (FT/S) (FT/S/D)
BUOY 41004       1310   77     230/ 17/ 23 1011.5
BUOY 41008       1250   77 78  220/ 16/ 19 1011.7R   4/ 6   2/100/ 8
FOLLY BEACH CMAN 1300   75     230/ 10/ 14 1012.4R
CAPERS NEARSHORE 1308   79 75  250/ 14/ 19 1011.2R
FRIPP NEARSHORE  1308   77 78  250/ 14/ 19 1011.4S


STATION/POSITION TIME  TEMP    WIND        PRES    WAVE   SWELL
                       AIR SEA DIR/SP/G            HT/PER HT/PER/DIR
                 (UTC) (F)     (DEG/KT/KT) (MB)    (FT/S) (FT/S/D)
5E ST. MARYS GA  1300      79                N/A     3/ 5
FRYING PAN BUOY  1310   75 77  190/ 17/ 23 1011.3
BUOY 41025       1250   74 77  250/ 14/ 16 1012.1R   4/ 5   2/100/ 8
CAPE LOOKOUT NC  1300   72     190/ 13/ 15 1011.7R
BUOY 41002       1250   76 76  170/ 17/ 21 1015.2S   4/ 4   2/ 60/ 8
BUOY 41010       1310   79 79  200/ 14/ 17 1015.3
ST AUGUSTINE FL  1300   77 78  230/  9/ 12 1014.6R


$$




USA.gov is the U.S. government's official web portal to all federal, state and local government web resources and services.